Weather History for KIPL - January, 2013

Change the Weather History Date:

Saturday, January 5, 2013

  Actual Average Record
Temperature  
Mean Temperature 47 °F -  
Max Temperature 62 °F 66 °F 82 °F (1969)
Min Temperature 32 °F 41 °F 23 °F (1949)
Degree Days  
Heating Degree Days 18    
Moisture  
Dew Point 18 °F    
Average Humidity 35    
Maximum Humidity 52    
Minimum Humidity 15    
Precipitation  
Precipitation 0.00 in - - ()
Sea Level Pressure  
Sea Level Pressure 30.26 in    
Wind  
Wind Speed 4 mph (West)    
Max Wind Speed 6 mph    
Max Gust Speed -    
Visibility 10 miles    
Events      
Averages and records for this station are not official NWS values.
T = Trace of Precipitation, MM = Missing Value Source: NWS Daily Summary

Daily Weather History Graph

Daily Weather History Graph

Search for Another Location

Airport or City:

Trip Planner

Search our weather history database for the weather conditions in past years. The results will help you decide how hot, cold, wet, or windy it might be!

Date:

Astronomy

Jan. 05, 2013 Rise Set
Actual Time 6:45 AM PST 4:50 PM PST
Civil Twilight 6:18 AM PST 5:17 PM PST
Nautical Twilight 5:47 AM PST 5:48 PM PST
Astronomical Twilight 5:17 AM PST 6:18 PM PST
Moon 12:07 AM PST (1/5) 11:33 AM PST (1/5)
Length of Visible Light 10h 59m
Length of Day
10h 04m
Last Quarter, 43% of the Moon is Illuminated
Jan 5
Last Quarter
Jan 11
New
Jan 18
First Quarter
Jan 26
Full
Feb 3
Last Quarter

Hourly Weather History & Observations

Time (PST) Temp. Windchill Dew Point Humidity Pressure Visibility Wind Dir Wind Speed Gust Speed Precip Events Conditions
12:53 AM 34.0 °F 31.0 °F 17.1 °F 50% 30.27 in 10.0 mi WSW 3.5 mph - N/A   Clear
1:53 AM 34.0 °F 28.8 °F 16.0 °F 48% 30.29 in 10.0 mi West 5.8 mph - N/A   Clear
2:53 AM 35.1 °F 32.2 °F 15.1 °F 44% 30.28 in 10.0 mi West 3.5 mph - N/A   Clear
3:53 AM 34.0 °F 28.8 °F 16.0 °F 48% 30.29 in 10.0 mi WSW 5.8 mph - N/A   Clear
4:53 AM 32.0 °F 27.5 °F 16.0 °F 52% 30.30 in 10.0 mi WSW 4.6 mph - N/A   Clear
5:53 AM 33.1 °F 27.7 °F 16.0 °F 50% 30.31 in 10.0 mi WSW 5.8 mph - N/A   Clear
6:53 AM 32.0 °F 28.7 °F 15.1 °F 50% 30.32 in 10.0 mi WSW 3.5 mph - N/A   Clear
7:53 AM 37.0 °F 33.3 °F 17.1 °F 44% 30.34 in 10.0 mi West 4.6 mph - N/A   Clear
8:53 AM 45.0 °F 43.5 °F 21.0 °F 39% 30.35 in 10.0 mi West 3.5 mph - N/A   Clear
9:53 AM 53.1 °F - 27.0 °F 37% 30.35 in 10.0 mi NW 3.5 mph - N/A   Clear
10:53 AM 57.9 °F - 21.0 °F 24% 30.33 in 10.0 mi North 5.8 mph - N/A   Clear
11:53 AM 61.0 °F - 17.1 °F 18% 30.29 in 10.0 mi NNE 3.5 mph - N/A   Clear
12:53 PM 62.1 °F - 17.1 °F 18% 30.27 in 10.0 mi Variable 3.5 mph - N/A   Clear
1:53 PM 62.1 °F - 15.1 °F 16% 30.24 in 10.0 mi NNW 4.6 mph - N/A   Clear
2:53 PM 62.1 °F - 12.9 °F 15% 30.23 in 10.0 mi NW 3.5 mph - N/A   Clear
3:53 PM 61.0 °F - 16.0 °F 17% 30.22 in 10.0 mi West 3.5 mph - N/A   Clear
4:53 PM 57.0 °F - 19.9 °F 24% 30.21 in 10.0 mi Calm Calm - N/A   Clear
5:53 PM 53.1 °F - 17.1 °F 24% 30.21 in 10.0 mi Calm Calm - N/A   Clear
6:53 PM 48.0 °F - 18.0 °F 30% 30.20 in 10.0 mi Calm Calm - N/A   Clear
7:53 PM 46.9 °F - 19.9 °F 34% 30.21 in 10.0 mi Calm Calm - N/A   Clear
8:53 PM 43.0 °F 41.3 °F 19.0 °F 38% 30.21 in 10.0 mi West 3.5 mph - N/A   Clear
9:53 PM 39.9 °F - 19.0 °F 43% 30.21 in 10.0 mi Calm Calm - N/A   Clear
10:53 PM 39.9 °F - 19.9 °F 45% 30.19 in 10.0 mi Calm Calm - N/A   Clear
11:53 PM 39.0 °F 35.7 °F 18.0 °F 43% 30.17 in 10.0 mi WSW 4.6 mph - N/A   Clear